Regional Weather Roundup
Issued by NWS Little Rock, AR

Home | Current Version | Previous Version | Text Only | Print | Product List | Glossary Off
Versions: 1 2 3 4 5 6 7 8 9 10 11 12 13 14 15 16 17 18 19 20 21 22 23 24 25 26 27

000
ASUS44 KLZK 230105
RWRLZK

WEATHER ROUNDUP FOR ARKANSAS
NATIONAL WEATHER SERVICE LITTLE ROCK AR
800 PM CDT WED OCT 22 2014

NOTE: "FAIR" INDICATES FEW OR NO CLOUDS BELOW 12,000 FEET WITH NO
SIGNIFICANT WEATHER AND/OR OBSTRUCTIONS TO VISIBILITY.

ARZ001-003-010-029-230200-
NORTHWEST ARKANSAS

CITY           SKY/WX    TMP DP  RH WIND       PRES   REMARKS
FAYETTEVILLE   CLEAR     58  53  84 CALM      30.17R
FORT SMITH     CLEAR     63  54  72 E5        30.15R
HARRISON       CLEAR     56  49  77 SE5       30.19R
BENTONVILLE    PTCLDY    64  52  63 S5        30.16S
ROGERS         PTCLDY    62  54  74 SE7       30.17R
SILOAM SPGS    CLEAR     63  48  59 S7        30.16S
HIGHFILL       CLEAR     62  54  74 S5        30.15R
SPRINGDALE     MOCLDY    64  54  68 SE5       30.18R
$$

ARZ004-005-016-230200-
NORTH CENTRAL ARKANSAS

CITY           SKY/WX    TMP DP  RH WIND       PRES   REMARKS
BATESVILLE     CLEAR     55  43  62 E6        30.18S
FLIPPIN        CLEAR     55  45  67 CALM      30.19R
MTN HOME       CLEAR     54  48  80 CALM      30.18R
$$

ARZ040-041-230200-
WEST CENTRAL ARKANSAS

CITY           SKY/WX    TMP DP  RH WIND       PRES   REMARKS
MENA           CLEAR     59  54  82 CALM      30.17R
MOUNT IDA      CLEAR     57  53  86 CALM      30.15R
$$

ARZ009-017-025-026-028-230200-
NORTHEAST ARKANSAS

CITY           SKY/WX    TMP DP  RH WIND       PRES   REMARKS
CORNING        FAIR      54  45  71 E8        30.19F
JONESBORO      CLEAR     52  46  80 NE3       30.18F
NEWPORT        LGT RAIN  55  47  74 NE6       30.19S VSB 1
WALNUT RIDGE   CLEAR     54  39  58 NE6       30.19S
BLYTHEVILLE    CLEAR     53  45  74 NE6       30.20R
$$

ARZ022-023-033-042-044-230200-
CENTRAL ARKANSAS

CITY           SKY/WX    TMP DP  RH WIND       PRES   REMARKS
LITTLE ROCK    CLEAR     58  45  62 E7        30.16S
N LITTLE ROCK  CLEAR     58  48  70 E7        30.16S
JACKSONVILLE   CLEAR     53  47  82 NE2       30.16S
SEARCY         CLEAR     55  44  66 NE3       30.19R
HOT SPRINGS    CLEAR     58  51  78 NE3       30.17R
RUSSELLVILLE   CLEAR     56  52  86 E3        30.18R
$$

ARZ036-230200-
EAST ARKANSAS

CITY           SKY/WX    TMP DP  RH WIND       PRES   REMARKS
WEST MEMPHIS   CLEAR     56  45  66 CALM      30.17S
$$

ARZ050-053-066-070-073-230200-
SOUTHWEST ARKANSAS

CITY           SKY/WX    TMP DP  RH WIND       PRES   REMARKS
ARKADELPHIA    FAIR      58  58 100 CALM      30.17R
CAMDEN         CLEAR     55  52  88 CALM      30.15R
TEXARKANA      CLEAR     60  53  77 NE3       30.15R
EL DORADO      CLEAR     57  53  86 CALM      30.15R
DE QUEEN       CLEAR     58  56  93 CALM      30.13R
$$

ARZ056-057-069-230200-
SOUTHEAST ARKANSAS

CITY           SKY/WX    TMP DP  RH WIND       PRES   REMARKS
PINE BLUFF     CLEAR     58  46  64 NE7       30.15R
STUTTGART      CLEAR     55  45  67 NE8       30.17S
MONTICELLO     CLEAR     57  50  77 CALM      30.14R

$$





USA.gov is the U.S. government's official web portal to all federal, state and local government web resources and services.